Regional Weather Roundup
Issued by NWS Jackson, KY

Home | Current Version | Previous Version | Text Only | Print | Product List | Glossary Off
Versions: 1 2 3 4 5 6 7 8 9 10 11 12 13 14 15 16 17 18 19 20 21 22 23 24 25 26 27 28 29 30 31 32 33 34 35 36 37 38 39 40 41 42 43 44 45 46 47 48

000
ASUS43 KJKL 232310
RWRJKL

EAST KENTUCKY HOURLY WEATHER ROUNDUP
NATIONAL WEATHER SERVICE JACKSON KY
700 PM EDT SUN APR 23 2017

NOTE: "FAIR" INDICATES FEW OR NO CLOUDS BELOW 12,000 FEET WITH
NO SIGNIFICANT WEATHER AND/OR OBSTRUCTIONS TO VISIBILITY.

* THESE REPORTS ARE NOT UNDER NWS QUALITY CONTROL AND MAY NOT
  REPORT WEATHER SUCH AS PRECIPITATION AND FOG.

KYZ079-080-083-085-087-088-110-112-115-119-120-240000
...EASTERN KENTUCKY...

CITY           SKY/WX    TMP DP  RH WIND       PRES   REMARKS
JACKSON        LGT RAIN  51  50  96 VRB3      29.93R FOG
LONDON         LGT RAIN  52  49  89 NE12G17   29.85F
SOMERSET*      CLOUDY    52  52 100 E12G17    29.81F
MONTICELLO*    CLOUDY    55  52  89 N6        29.84S
WILLIAMSBURG*  MOCLDY    54  54 100 E15G21    29.79F
MIDDLESBORO*   LGT RAIN  54  54  98 CALM      29.86F
HARLAN APT*    CLOUDY    52  52 100 CALM      29.88F VSB 3/4
PIKE CO APT*   CLOUDY    51  51 100 E3        29.94R
BIG SANDY APT* LGT RAIN  52  52 100 E3        29.94R
MOREHEAD APT*  LGT RAIN  54  48  82 NE8G15    29.96S
ASHLAND*       CLOUDY    57  48  72 SE3       29.95S
$$

KYZ035-036-041-042-044-050-067-078-099-240000
...CENTRAL KENTUCKY...

CITY           SKY/WX    TMP DP  RH WIND       PRES   REMARKS
MT STERLING*   DRIZZLE   52  50  93 E8        29.96R
FLEMING/MASON* CLOUDY    57  46  65 E9        29.97S
DANVILLE*      LGT RAIN  50  48  93 NE8G18    29.90R
LEXINGTON      PTSUNNY   57  46  66 NE15      29.93S
FRANKFORT      CLOUDY    59  46  62 NE5       29.93R
LOUISVILLE     CLOUDY    61  41  47 NE13      29.92S
LEBANON*         N/A     54  48  82 NE13G22   29.87F
GLASGOW*       CLOUDY    52  52 100 N9        29.88R
BOWLING GREEN  CLOUDY    54  51  90 N6        29.89S
$$

KYZ091>093-OHZ055-061-077-WVZ005-015-034-035-042-240000
...SOUTHERN OHIO/WEST VIRGINIA...

CITY           SKY/WX    TMP DP  RH WIND       PRES   REMARKS
COVINGTON      CLOUDY    63  35  35 NE13      29.96R
COLUMBUS       PTSUNNY   66  32  28 E8        29.98S
DAYTON         CLOUDY    68  30  24 NE13      29.98S
WILMINGTON     MOSUNNY   62  37  39 NE10      29.97R
HUNTINGTON     CLOUDY    55  49  80 NE5       29.95S
CHARLESTON     CLOUDY    58  50  75 CALM      29.96S
PINEVILLE*     DRIZZLE   50  48  92 MISG      29.98F
BECKLEY        CLOUDY    47  44  90 E12G17    29.97F
BLUEFIELD      LGT RAIN  44  42  93 E9G17     29.96F
LOGAN CO APT*  MOCLDY    50  50 100 NE6       29.93F
$$

VAZ002-007-008-TNZ017-027-036-066-071-240000
...SOUTHWEST VIRGINIA/EAST TENNESSEE...

CITY           SKY/WX    TMP DP  RH WIND       PRES   REMARKS
WISE*          RAIN      50  50 100 CALM      29.93R
JONESVILLE*    LGT RAIN  52  52 100 NE7       29.90S
ABINGDON*      RAIN      49  47  94 E12G22    29.91R
BRISTOL        RAIN      50  48  93 NE6       29.90R FOG
MORRISTOWN*    MOCLDY    54  52  94 E9G16     29.83R
SEVIERVILLE*   CLOUDY    54  54 100 NW5       29.81R
KNOXVILLE      LGT RAIN  56  53  90 NE12      29.80R FOG
LAFOLLETTE*    CLOUDY    55  52  88 NE9       29.84F
OAK RIDGE      CLOUDY    56  53  90 NE6G17    29.81R
CROSSVILLE     FOG       54  53  97 NE7       29.79R VSB 1
NASHVILLE      HVY RAIN  52  50  93 N12       29.84F FOG
$$

...KEY TO REMARKS...
VSB - VISIBILITY IN MILES
WCI - WIND CHILL INDEX
HX  - HEAT INDEX

$$



USA.gov is the U.S. government's official web portal to all federal, state and local government web resources and services.